Location: Hastringsfeld
(50.9620°N, 10.4787°E)
Time: 10:03:36
(UTC+00:00)

BREEZE-M DEB (TANK) - Pass Details

Date: 26 September 2023
Orbit: 259 x 12582 km, 49.6° (Epoch: 08 December)

Event Time Altitude Azimuth Distance (km) Brightness Sun altitude
Exits shadow 01:39:25 64° 205° (SSW) 1,639 4.3 -31.0°
Maximum altitude 01:40:38 73° 156° (SSE) 1,768 4.6 -30.8°
Drops below altitude 10° 02:05:44 10° 79° (ENE) 9,746 9.4 -27.9°
Sets 02:19:59 0° 80° (E) 13,225 10.3 -26.1°
